Regional Weather Roundup
Issued by NWS

Home | Current Version | Previous Version | Text Only | Print | Product List | Glossary On
Versions: 1 2 3 4 5 6 7 8 9 10 11 12 13 14 15 16 17 18 19 20 21 22 23 24 25 26 27 28 29 30 31 32 33 34 35 36 37 38 39 40 41 42 43 44 45 46 47 48 49 50
000
ASUS43 KDMX 111907
RWRIA

WEATHER ROUNDUP FOR IOWA
NATIONAL WEATHER SERVICE DES MOINES IA
200 PM CDT FRI JUL 11 2014

NOTE: "FAIR" INDICATES FEW OR NO CLOUDS BELOW 12,000 FEET WITH NO
SIGNIFICANT WEATHER AND/OR OBSTRUCTIONS TO VISIBILITY.

* - THESE STATIONS ARE NOT NWS STATIONS...THUS NOT UNDER NWS
QUALITY CONTROL.  THEY ALSO DO NOT REPORT WEATHER SUCH
AS PRECIPITATION OR FOG.

IAZ001>003-012>014-020>022-031>034-043>046-112000-
   NORTHWEST IOWA

CITY           SKY/WX    TMP DP  RH WIND       PRES   REMARKS
CARROLL *      CLOUDY    72  68  88 SW9       30.02R
CHEROKEE *     CLOUDY    73  70  88 SW10      30.00S
DENISON *      CLOUDY    73  70  88 SW8       29.98F
LE MARS *      PTSUNNY   75  70  83 S9        29.99F
ORANGE CITY *  MOSUNNY   79  70  73 S10       29.99F HX  81
SHELDON *      CLOUDY    75  70  83 SW10      29.99S
SIOUX CITY     PTSUNNY   76  69  79 E12       29.94F
SPENCER        PTSUNNY   79  69  71 S8        29.99F HX  81
STORM LAKE *   CLOUDY    73  70  88 SW10      30.02S
$$

IAZ055>058-069>071-079>083-090>094-112000-
   SOUTHWEST IOWA

CITY           SKY/WX    TMP DP  RH WIND       PRES   REMARKS
ATLANTIC *     PTSUNNY   75  70  83 S8        29.99R
AUDUBON *      MOSUNNY   75  72  88 SW9       30.02R
CLARINDA *     MOSUNNY   82  73  74 S9G17     30.01R HX  88
COUNCIL BLFS * MOSUNNY   77  73  88 S12       29.98S
CRESTON *      CLOUDY    75  72  88 S12       30.02S
HARLAN  *      CLOUDY    73  70  88 S7        30.03S
LAMONI         CLOUDY    79  70  74 S15       30.02F HX  82
RED OAK *      PTSUNNY   79  72  78 S10       30.00R HX  82
SHENANDOAH *   MOSUNNY   82  73  74 S9        30.00R HX  88
$$

IAZ047>049-059>061-072>074-084-112000-
   CENTRAL IOWA

CITY           SKY/WX    TMP DP  RH WIND       PRES   REMARKS
AMES           CLOUDY    70  66  87 S7G16     30.00S
ANKENY *       SUNNY     70  68  94 S10G20    29.99F
CHARITON *     MOSUNNY   79  70  73 S9G17     30.03S HX  81
DES MOINES     LGT RAIN  73  68  84 S15       30.01F
GRINNELL*      CLOUDY    72  66  83 SE8       30.06S
KNOXVILLE *    MOSUNNY   75  68  78 S8        30.03R
MARSHALLTOWN   LGT RAIN  72  66  81 S16       30.00F
PELLA *        CLOUDY    75  68  78 SE8       30.06R
PERRY *        CLOUDY    72  68  88 CALM      30.00S
$$

IAZ004>006-015-016-023>025-035-036-112000-
   NORTH CENTRAL IOWA

CITY           SKY/WX    TMP DP  RH WIND       PRES   REMARKS
ALGONA *       MOSUNNY   79  68  69 S9G16     30.01F HX  81
CLARION *      MOSUNNY   75  66  73 S13G18    30.03R
ESTHERVILLE    SUNNY     81  67  62 S16       29.98  HX  83
FORT DODGE *   CLOUDY    75  66  73 SW12G17   30.02R
MASON CITY     MOSUNNY   78  65  63 S12       30.04F HX  80
FOREST CITY *  PTSUNNY   77  68  73 S10       30.02F
IOWA FALLS *   PTSUNNY   72  64  78 S7        30.04R
$$

IAZ007>011-017>019-026>030-037>042-050>054-066-112000-
   NORTHEAST IOWA

CITY           SKY/WX    TMP DP  RH WIND       PRES   REMARKS
CEDAR RAPIDS   CLOUDY    76  64  66 S12G22    30.05S
CHARLES CITY * SUNNY     73  64  73 S12       30.06S
CLINTON *      CLOUDY    79  63  57 SE14      30.13F HX  80
DECORAH *        N/A    N/A N/A N/A MISG        N/A
DUBUQUE        CLOUDY    72  62  71 SE13G23   30.08F
MONTICELLO *   SUNNY     75  66  73 SE10      30.07S
OELWEIN *      MOSUNNY   70  70 100 SE14      30.07F
WATERLOO       CLOUDY    74  65  73 SE6       30.03S
$$

IAZ064-065-067-068-078-112000-
   EAST CENTRAL IOWA

CITY           SKY/WX    TMP DP  RH WIND       PRES   REMARKS
DAVENPORT      CLOUDY    80  65  59 SE16      30.10F HX  82
IOWA CITY      CLOUDY    81  68  64 S16G23    30.07F HX  84
MT. PLEASANT * CLOUDY    81  64  57 SE8       30.08F HX  82
MUSCATINE *    SUNNY     82  64  54 SE16G23   30.06F HX  84
QUAD CITIES    PTSUNNY   80  63  55 S14G22    30.10F HX  81
$$

IAZ062-063-075>077-085>089-095>099-112000-
   SOUTHEAST IOWA

CITY           SKY/WX    TMP DP  RH WIND       PRES   REMARKS
BURLINGTON     CLOUDY    80  67  64 S10       30.08F HX  82
FAIRFIELD *    SUNNY     77  66  69 SE20      30.04F
FORT MADISON * SUNNY     81  68  65 SE8       30.09F HX  83
KEOKUK *       SUNNY     81  68  65 SE13G18   30.07F HX  83
OSKALOOSA *      N/A     77  68  73 SE9       30.05R
CENTERVILLE *  SUNNY     77  72  83 SE12      30.05F
OTTUMWA        CLOUDY    76  68  76 SE9       30.04F
WASHINGTON *   SUNNY     81  66  61 SE20G26   30.05F HX  83
$$

ABBREVIATIONS USED IN REMARKS
   TC - TEMPERATURES IN CELSIUS
  WCI - WIND CHILL INDEX
   HX - HEAT INDEX
  VSB - VISIBILITY
$$




USA.gov is the U.S. government's official web portal to all federal, state and local government web resources and services.